Year,Month,Day,Hour,Minute,Value (Times are PST for temperature in C)
2017,12,07,00,00,5.30
2017,12,07,00,01,5.30
2017,12,07,00,02,5.30
2017,12,07,00,03,5.30
2017,12,07,00,04,5.30
2017,12,07,00,05,5.30
2017,12,07,00,06,5.30
2017,12,07,00,07,5.30
2017,12,07,00,08,5.30
2017,12,07,00,09,5.30
2017,12,07,00,10,5.30
2017,12,07,00,11,5.30
2017,12,07,00,12,5.30
2017,12,07,00,13,5.30
2017,12,07,00,14,5.30
2017,12,07,00,15,5.30
2017,12,07,00,16,5.30
2017,12,07,00,17,5.30
2017,12,07,00,18,5.30
2017,12,07,00,19,5.30
2017,12,07,00,20,5.30
2017,12,07,00,21,5.30
2017,12,07,00,22,5.30
2017,12,07,00,23,5.20
2017,12,07,00,24,5.20
2017,12,07,00,25,5.20
2017,12,07,00,26,5.10
2017,12,07,00,27,5.10
2017,12,07,00,28,5.10
2017,12,07,00,29,5.10
2017,12,07,00,30,5.10
2017,12,07,00,31,5.10
2017,12,07,00,32,5.10
2017,12,07,00,33,5.10
2017,12,07,00,34,5.10
2017,12,07,00,35,5.10
2017,12,07,00,36,5.10
2017,12,07,00,37,5.10
2017,12,07,00,38,5.10
2017,12,07,00,39,5.10
2017,12,07,00,40,5.10
2017,12,07,00,41,5.10
2017,12,07,00,42,5.10
2017,12,07,00,43,5.10
2017,12,07,00,44,5.10
2017,12,07,00,45,5.10
2017,12,07,00,46,5.10
2017,12,07,00,47,5.10
2017,12,07,00,48,5.10
2017,12,07,00,49,5.10
2017,12,07,00,50,5.10
2017,12,07,00,51,5.10
2017,12,07,00,52,5.10
2017,12,07,00,53,5.10
2017,12,07,00,54,5.10
2017,12,07,00,55,5.10
2017,12,07,00,56,5.10
2017,12,07,00,57,5.10
2017,12,07,00,58,5.10
2017,12,07,00,59,5.10
2017,12,07,01,00,5.10
2017,12,07,01,01,5.10
2017,12,07,01,02,5.10
2017,12,07,01,03,5.10
2017,12,07,01,04,5.10
2017,12,07,01,05,5.10
2017,12,07,01,06,5.10
2017,12,07,01,07,5.10
2017,12,07,01,08,5.10
2017,12,07,01,09,5.10
2017,12,07,01,10,5.00
2017,12,07,01,11,4.90
2017,12,07,01,12,4.90
2017,12,07,01,13,4.90
2017,12,07,01,14,4.90
2017,12,07,01,15,4.90
2017,12,07,01,16,4.90
2017,12,07,01,17,4.90
2017,12,07,01,18,4.90
2017,12,07,01,19,4.90
2017,12,07,01,20,4.90
2017,12,07,01,21,4.90
2017,12,07,01,22,4.90
2017,12,07,01,23,4.90
2017,12,07,01,24,4.90
2017,12,07,01,25,4.90
2017,12,07,01,26,4.90
2017,12,07,01,27,4.90
2017,12,07,01,28,4.90
2017,12,07,01,29,4.90
2017,12,07,01,30,4.90
2017,12,07,01,31,4.90
2017,12,07,01,32,4.90
2017,12,07,01,33,4.90
2017,12,07,01,34,4.90
2017,12,07,01,35,4.80
2017,12,07,01,36,4.80
2017,12,07,01,37,4.70
2017,12,07,01,38,4.70
2017,12,07,01,39,4.60
2017,12,07,01,40,4.60
2017,12,07,01,41,4.60
2017,12,07,01,42,4.50
2017,12,07,01,43,4.40
2017,12,07,01,44,4.40
2017,12,07,01,45,4.30
2017,12,07,01,46,4.30
2017,12,07,01,47,4.20
2017,12,07,01,48,4.20
2017,12,07,01,49,4.20
2017,12,07,01,50,4.20
2017,12,07,01,51,4.20
2017,12,07,01,52,4.10
2017,12,07,01,53,4.10
2017,12,07,01,54,4.10
2017,12,07,01,55,4.10
2017,12,07,01,56,4.10
2017,12,07,01,57,4.00
2017,12,07,01,58,4.00
2017,12,07,01,59,4.00
2017,12,07,02,00,3.90
2017,12,07,02,01,3.90
2017,12,07,02,02,3.80
2017,12,07,02,03,3.90
2017,12,07,02,04,3.90
2017,12,07,02,05,3.90
2017,12,07,02,06,3.90
2017,12,07,02,07,4.00
2017,12,07,02,08,4.00
2017,12,07,02,09,4.00
2017,12,07,02,10,4.00
2017,12,07,02,11,4.00
2017,12,07,02,12,4.00
2017,12,07,02,13,4.00
2017,12,07,02,14,4.00
2017,12,07,02,15,4.00
2017,12,07,02,16,4.00
2017,12,07,02,17,4.00
2017,12,07,02,18,4.00
2017,12,07,02,19,4.00
2017,12,07,02,20,4.00
2017,12,07,02,21,4.00
2017,12,07,02,22,4.00
2017,12,07,02,23,4.00
2017,12,07,02,24,4.00
2017,12,07,02,25,3.90
2017,12,07,02,26,3.90
2017,12,07,02,27,3.80
2017,12,07,02,28,3.80
2017,12,07,02,29,3.70
2017,12,07,02,30,3.60
2017,12,07,02,31,3.50
2017,12,07,02,32,3.50
2017,12,07,02,33,3.40
2017,12,07,02,34,3.30
2017,12,07,02,35,3.20
2017,12,07,02,36,3.20
2017,12,07,02,37,3.20
2017,12,07,02,38,3.10
2017,12,07,02,39,3.10
2017,12,07,02,40,3.10
2017,12,07,02,41,3.10
2017,12,07,02,42,3.10
2017,12,07,02,43,3.10
2017,12,07,02,44,3.20
2017,12,07,02,45,3.20
2017,12,07,02,46,3.20
2017,12,07,02,47,3.30
2017,12,07,02,48,3.30
2017,12,07,02,49,3.30
2017,12,07,02,50,3.30
2017,12,07,02,51,3.30
2017,12,07,02,52,3.40
2017,12,07,02,53,3.40
2017,12,07,02,54,3.40
2017,12,07,02,55,3.40
2017,12,07,02,56,3.40
2017,12,07,02,57,3.40
2017,12,07,02,58,3.40
2017,12,07,02,59,3.40
2017,12,07,03,00,3.40
2017,12,07,03,01,3.40
2017,12,07,03,02,3.40
2017,12,07,03,03,3.40
2017,12,07,03,04,3.40
2017,12,07,03,05,3.50
2017,12,07,03,06,3.50
2017,12,07,03,07,3.50
2017,12,07,03,08,3.50
2017,12,07,03,09,3.50
2017,12,07,03,10,3.50
2017,12,07,03,11,3.50
2017,12,07,03,12,3.50
2017,12,07,03,13,3.50
2017,12,07,03,14,3.60
2017,12,07,03,15,3.50
2017,12,07,03,16,3.50
2017,12,07,03,17,3.50
2017,12,07,03,18,3.50
2017,12,07,03,19,3.50
2017,12,07,03,20,3.40
2017,12,07,03,21,3.40
2017,12,07,03,22,3.30
2017,12,07,03,23,3.30
2017,12,07,03,24,3.30
2017,12,07,03,25,3.30
2017,12,07,03,26,3.20
2017,12,07,03,27,3.10
2017,12,07,03,28,3.00
2017,12,07,03,29,2.90
2017,12,07,03,30,2.80
2017,12,07,03,31,2.70
2017,12,07,03,32,2.50
2017,12,07,03,33,2.50
2017,12,07,03,34,2.40
2017,12,07,03,35,2.30
2017,12,07,03,36,2.30
2017,12,07,03,37,2.20
2017,12,07,03,38,2.20
2017,12,07,03,39,2.20
2017,12,07,03,40,2.20
2017,12,07,03,41,2.20
2017,12,07,03,42,2.20
2017,12,07,03,43,2.20
2017,12,07,03,44,2.20
2017,12,07,03,45,2.20
2017,12,07,03,46,2.20
2017,12,07,03,47,2.20
2017,12,07,03,48,2.20
2017,12,07,03,49,2.20
2017,12,07,03,50,2.20
2017,12,07,03,51,2.30
2017,12,07,03,52,2.30
2017,12,07,03,53,2.30
2017,12,07,03,54,2.30
2017,12,07,03,55,2.30
2017,12,07,03,56,2.40
2017,12,07,03,57,2.40
2017,12,07,03,58,2.40
2017,12,07,03,59,2.30
2017,12,07,04,00,2.30
2017,12,07,04,01,2.30
2017,12,07,04,02,2.20
2017,12,07,04,03,2.20
2017,12,07,04,04,2.20
2017,12,07,04,05,2.20
2017,12,07,04,06,2.20
2017,12,07,04,07,2.20
2017,12,07,04,08,2.20
2017,12,07,04,09,2.20
2017,12,07,04,10,2.20
2017,12,07,04,11,2.20
2017,12,07,04,12,2.10
2017,12,07,04,13,2.10
2017,12,07,04,14,2.10
2017,12,07,04,15,2.00
2017,12,07,04,16,2.00
2017,12,07,04,17,2.00
2017,12,07,04,18,1.90
2017,12,07,04,19,1.90
2017,12,07,04,20,1.90
2017,12,07,04,21,1.80
2017,12,07,04,22,1.80
2017,12,07,04,23,1.80
2017,12,07,04,24,1.80
2017,12,07,04,25,1.80
2017,12,07,04,26,1.80
2017,12,07,04,27,1.80
2017,12,07,04,28,1.70
2017,12,07,04,29,1.70
2017,12,07,04,30,1.70
2017,12,07,04,31,1.70
2017,12,07,04,32,1.60
2017,12,07,04,33,1.60
2017,12,07,04,34,1.60
2017,12,07,04,35,1.60
2017,12,07,04,36,1.60
2017,12,07,04,37,1.60
2017,12,07,04,38,1.60
2017,12,07,04,39,1.50
2017,12,07,04,40,1.50
2017,12,07,04,41,1.50
2017,12,07,04,42,1.50
2017,12,07,04,43,1.50
2017,12,07,04,44,1.50
2017,12,07,04,45,1.60
2017,12,07,04,46,1.60
2017,12,07,04,47,1.60
2017,12,07,04,48,1.70
2017,12,07,04,49,1.70
2017,12,07,04,50,1.80
2017,12,07,04,51,1.80
2017,12,07,04,52,1.80
2017,12,07,04,53,1.90
2017,12,07,04,54,1.90
2017,12,07,04,55,1.90
2017,12,07,04,56,2.00
2017,12,07,04,57,2.00
2017,12,07,04,58,2.00
2017,12,07,04,59,1.90
2017,12,07,05,00,2.00
2017,12,07,05,01,2.00
2017,12,07,05,02,2.00
2017,12,07,05,03,2.00
2017,12,07,05,04,2.00
2017,12,07,05,05,2.00
2017,12,07,05,06,2.00
2017,12,07,05,07,2.00
2017,12,07,05,08,2.00
2017,12,07,05,09,2.00
2017,12,07,05,10,2.10
2017,12,07,05,11,2.10
2017,12,07,05,12,2.10
2017,12,07,05,13,2.10
2017,12,07,05,14,2.10
2017,12,07,05,15,2.10
2017,12,07,05,16,2.10
2017,12,07,05,17,2.10
2017,12,07,05,18,2.00
2017,12,07,05,19,2.00
2017,12,07,05,20,1.90
2017,12,07,05,21,1.90
2017,12,07,05,22,1.90
2017,12,07,05,23,1.90
2017,12,07,05,24,1.80
2017,12,07,05,25,1.80
2017,12,07,05,26,1.80
2017,12,07,05,27,1.90
2017,12,07,05,28,1.90
2017,12,07,05,29,1.90
2017,12,07,05,30,2.00
2017,12,07,05,31,2.00
2017,12,07,05,32,2.00
2017,12,07,05,33,2.00
2017,12,07,05,34,2.10
2017,12,07,05,35,2.10
2017,12,07,05,36,2.10
2017,12,07,05,37,2.10
2017,12,07,05,38,2.10
2017,12,07,05,39,2.10
2017,12,07,05,40,2.10
2017,12,07,05,41,2.10
2017,12,07,05,42,2.10
2017,12,07,05,43,2.10
2017,12,07,05,44,2.10
2017,12,07,05,45,2.10
2017,12,07,05,46,2.10
2017,12,07,05,47,2.10
2017,12,07,05,48,2.00
2017,12,07,05,49,2.00
2017,12,07,05,50,2.00
2017,12,07,05,51,2.00
2017,12,07,05,52,1.90
2017,12,07,05,53,1.90
2017,12,07,05,54,1.80
2017,12,07,05,55,1.80
2017,12,07,05,56,1.80
2017,12,07,05,57,1.80
2017,12,07,05,58,1.80
2017,12,07,05,59,1.70
2017,12,07,06,00,1.70
2017,12,07,06,01,1.60
2017,12,07,06,02,1.60
2017,12,07,06,03,1.50
2017,12,07,06,04,1.50
2017,12,07,06,05,1.40
2017,12,07,06,06,1.40
2017,12,07,06,07,1.40
2017,12,07,06,08,1.40
2017,12,07,06,09,1.40
2017,12,07,06,10,1.40
2017,12,07,06,11,1.40
2017,12,07,06,12,1.40
2017,12,07,06,13,1.30
2017,12,07,06,14,1.30
2017,12,07,06,15,1.30
2017,12,07,06,16,1.20
2017,12,07,06,17,1.20
2017,12,07,06,18,1.20
2017,12,07,06,19,1.10
2017,12,07,06,20,1.10
2017,12,07,06,21,1.10
2017,12,07,06,22,1.10
2017,12,07,06,23,1.00
2017,12,07,06,24,1.00
2017,12,07,06,25,1.00
2017,12,07,06,26,1.00
2017,12,07,06,27,0.90
2017,12,07,06,28,0.90
2017,12,07,06,29,0.90
2017,12,07,06,30,0.80
2017,12,07,06,31,0.80
2017,12,07,06,32,0.80
2017,12,07,06,33,0.80
2017,12,07,06,34,0.80
2017,12,07,06,35,0.80
2017,12,07,06,36,0.80
2017,12,07,06,37,0.80
2017,12,07,06,38,0.80
2017,12,07,06,39,0.80
2017,12,07,06,40,0.80
2017,12,07,06,41,0.80
2017,12,07,06,42,0.80
2017,12,07,06,43,0.80
2017,12,07,06,44,0.80
2017,12,07,06,45,0.80
2017,12,07,06,46,0.70
2017,12,07,06,47,0.70
2017,12,07,06,48,0.60
2017,12,07,06,49,0.60
2017,12,07,06,50,0.60
2017,12,07,06,51,0.50
2017,12,07,06,52,0.50
2017,12,07,06,53,0.60
2017,12,07,06,54,0.60
2017,12,07,06,55,0.60
2017,12,07,06,56,0.60
2017,12,07,06,57,0.60
2017,12,07,06,58,0.60
2017,12,07,06,59,0.60
2017,12,07,07,00,0.60
2017,12,07,07,01,0.60
2017,12,07,07,02,0.60
2017,12,07,07,03,0.60
2017,12,07,07,04,0.60
2017,12,07,07,05,0.60
2017,12,07,07,06,0.60
2017,12,07,07,07,0.70
2017,12,07,07,08,0.80
2017,12,07,07,09,0.80
2017,12,07,07,10,0.90
2017,12,07,07,11,1.00
2017,12,07,07,12,1.10
2017,12,07,07,13,1.10
2017,12,07,07,14,1.20
2017,12,07,07,15,1.20
2017,12,07,07,16,1.30
2017,12,07,07,17,1.30
2017,12,07,07,18,1.30
2017,12,07,07,19,1.30
2017,12,07,07,20,1.30
2017,12,07,07,21,1.30
2017,12,07,07,22,1.30
2017,12,07,07,23,1.30
2017,12,07,07,24,1.30
2017,12,07,07,25,1.30
2017,12,07,07,26,1.30
2017,12,07,07,27,1.30
2017,12,07,07,28,1.30
2017,12,07,07,29,1.40
2017,12,07,07,30,1.50
2017,12,07,07,31,1.50
2017,12,07,07,32,1.50
2017,12,07,07,33,1.50
2017,12,07,07,34,1.50
2017,12,07,07,35,1.60
2017,12,07,07,36,1.60
2017,12,07,07,37,1.70
2017,12,07,07,38,1.70
2017,12,07,07,39,1.70
2017,12,07,07,40,1.60
2017,12,07,07,41,1.60
2017,12,07,07,42,1.60
2017,12,07,07,43,1.50
2017,12,07,07,44,1.50
2017,12,07,07,45,1.40
2017,12,07,07,46,1.40
2017,12,07,07,47,1.40
2017,12,07,07,48,1.40
2017,12,07,07,49,1.40
2017,12,07,07,50,1.50
2017,12,07,07,51,1.50
2017,12,07,07,52,1.50
2017,12,07,07,53,1.60
2017,12,07,07,54,1.70
2017,12,07,07,55,1.80
2017,12,07,07,56,1.90
2017,12,07,07,57,2.00
2017,12,07,07,58,2.10
2017,12,07,07,59,2.20
2017,12,07,08,00,2.20
2017,12,07,08,01,2.30
2017,12,07,08,02,2.30
2017,12,07,08,03,2.40
2017,12,07,08,04,2.40
2017,12,07,08,05,2.40
2017,12,07,08,06,2.50
2017,12,07,08,07,2.50
2017,12,07,08,08,2.50
2017,12,07,08,09,2.50
2017,12,07,08,10,2.50
2017,12,07,08,11,2.60
2017,12,07,08,12,2.60
2017,12,07,08,13,2.70
2017,12,07,08,14,2.70
2017,12,07,08,15,2.70
2017,12,07,08,16,2.80
2017,12,07,08,17,2.80
2017,12,07,08,18,2.90
2017,12,07,08,19,2.90
2017,12,07,08,20,3.00
2017,12,07,08,21,3.10
2017,12,07,08,22,3.10
2017,12,07,08,23,3.20
2017,12,07,08,24,3.30
2017,12,07,08,25,3.30
2017,12,07,08,26,3.30
2017,12,07,08,27,3.40
2017,12,07,08,28,3.40
2017,12,07,08,29,3.50
2017,12,07,08,30,3.50
2017,12,07,08,31,3.60
2017,12,07,08,32,3.60
2017,12,07,08,33,3.70
2017,12,07,08,34,3.80
2017,12,07,08,35,3.90
2017,12,07,08,36,3.90
2017,12,07,08,37,4.00
2017,12,07,08,38,4.00
2017,12,07,08,39,4.10
2017,12,07,08,40,4.10
2017,12,07,08,41,4.10
2017,12,07,08,42,4.10
2017,12,07,08,43,4.10
2017,12,07,08,44,4.10
2017,12,07,08,45,4.10
2017,12,07,08,46,4.10
2017,12,07,08,47,4.10
2017,12,07,08,48,4.00
2017,12,07,08,49,4.00
2017,12,07,08,50,4.00
2017,12,07,08,51,4.00
2017,12,07,08,52,3.90
2017,12,07,08,53,3.90
2017,12,07,08,54,3.90
2017,12,07,08,55,3.80
2017,12,07,08,56,3.80
2017,12,07,08,57,3.80
2017,12,07,08,58,3.80
2017,12,07,08,59,3.80
2017,12,07,09,00,3.80
2017,12,07,09,01,3.70
2017,12,07,09,02,3.70
2017,12,07,09,03,3.70
2017,12,07,09,04,3.60
2017,12,07,09,05,3.60
2017,12,07,09,06,3.60
2017,12,07,09,07,3.70
2017,12,07,09,08,3.70
2017,12,07,09,09,3.80
2017,12,07,09,10,3.80
2017,12,07,09,11,3.90
2017,12,07,09,12,3.90
2017,12,07,09,13,4.00
2017,12,07,09,14,4.00
2017,12,07,09,15,4.10
2017,12,07,09,16,4.10
2017,12,07,09,17,4.20
2017,12,07,09,18,4.20
2017,12,07,09,19,4.20
2017,12,07,09,20,4.20
2017,12,07,09,21,4.20
2017,12,07,09,22,4.30
2017,12,07,09,23,4.30
2017,12,07,09,24,4.40
2017,12,07,09,25,4.50
2017,12,07,09,26,4.50
2017,12,07,09,27,4.60
2017,12,07,09,28,4.70
2017,12,07,09,29,4.80
2017,12,07,09,30,4.90
2017,12,07,09,31,5.00
2017,12,07,09,32,5.10
2017,12,07,09,33,5.10
2017,12,07,09,34,5.20
2017,12,07,09,35,5.20
2017,12,07,09,36,5.30
2017,12,07,09,37,5.30
2017,12,07,09,38,5.30
2017,12,07,09,39,5.40
2017,12,07,09,40,5.40
2017,12,07,09,41,5.50
2017,12,07,09,42,5.50
2017,12,07,09,43,5.60
2017,12,07,09,44,5.60
2017,12,07,09,45,5.70
2017,12,07,09,46,5.70
2017,12,07,09,47,5.70
2017,12,07,09,48,5.80
2017,12,07,09,49,5.80
2017,12,07,09,50,5.80
2017,12,07,09,51,5.90
2017,12,07,09,52,6.00
2017,12,07,09,53,6.00
2017,12,07,09,54,6.00
2017,12,07,09,55,6.00
2017,12,07,09,56,6.00
2017,12,07,09,57,6.10
2017,12,07,09,58,6.10
2017,12,07,09,59,6.10
2017,12,07,10,00,6.10
2017,12,07,10,01,6.10
2017,12,07,10,02,6.20
2017,12,07,10,03,6.20
2017,12,07,10,04,6.20
2017,12,07,10,05,6.20
2017,12,07,10,06,6.20
2017,12,07,10,07,6.20
2017,12,07,10,08,6.20
2017,12,07,10,09,6.20
2017,12,07,10,10,6.20
2017,12,07,10,11,6.20
2017,12,07,10,12,6.20
2017,12,07,10,13,6.20
2017,12,07,10,14,6.20
2017,12,07,10,15,6.20
2017,12,07,10,16,6.30
2017,12,07,10,17,6.30
2017,12,07,10,18,6.30
2017,12,07,10,19,6.30
2017,12,07,10,20,6.30
2017,12,07,10,21,6.40
2017,12,07,10,22,6.40
2017,12,07,10,23,6.40
2017,12,07,10,24,6.40
2017,12,07,10,25,6.40
2017,12,07,10,26,6.40
2017,12,07,10,27,6.40
2017,12,07,10,28,6.50
2017,12,07,10,29,6.60
2017,12,07,10,30,6.60
2017,12,07,10,31,6.60
2017,12,07,10,32,6.60
2017,12,07,10,33,6.60
2017,12,07,10,34,6.70
2017,12,07,10,35,6.70
2017,12,07,10,36,6.70
2017,12,07,10,37,6.70
2017,12,07,10,38,6.80
2017,12,07,10,39,6.80
2017,12,07,10,40,6.80
2017,12,07,10,41,6.80
2017,12,07,10,42,6.80
2017,12,07,10,43,6.80
2017,12,07,10,44,6.80
2017,12,07,10,45,6.80
2017,12,07,10,46,6.80
2017,12,07,10,47,6.80
2017,12,07,10,48,6.80
2017,12,07,10,49,6.80
2017,12,07,10,50,6.80
2017,12,07,10,51,6.90
2017,12,07,10,52,6.90
2017,12,07,10,53,6.90
2017,12,07,10,54,7.00
2017,12,07,10,55,7.00
2017,12,07,10,56,7.00
2017,12,07,10,57,7.10
2017,12,07,10,58,7.10
2017,12,07,10,59,7.10
2017,12,07,11,00,7.10
2017,12,07,11,01,7.20
2017,12,07,11,02,7.20
2017,12,07,11,03,7.20
2017,12,07,11,04,7.20
2017,12,07,11,05,7.30
2017,12,07,11,06,7.30
2017,12,07,11,07,7.30
2017,12,07,11,08,7.30
2017,12,07,11,09,7.30
2017,12,07,11,10,7.30
2017,12,07,11,11,7.30
2017,12,07,11,12,7.30
2017,12,07,11,13,7.30
2017,12,07,11,14,7.30
2017,12,07,11,15,7.40
2017,12,07,11,16,7.40
2017,12,07,11,17,7.40
2017,12,07,11,18,7.50
2017,12,07,11,19,7.50
2017,12,07,11,20,7.50
2017,12,07,11,21,7.50
2017,12,07,11,22,7.50
2017,12,07,11,23,7.50
2017,12,07,11,24,7.50
2017,12,07,11,25,7.50
2017,12,07,11,26,7.50
2017,12,07,11,27,7.50
2017,12,07,11,28,7.50
2017,12,07,11,29,7.50
2017,12,07,11,30,7.50
2017,12,07,11,31,7.50
2017,12,07,11,32,7.50
2017,12,07,11,33,7.60
2017,12,07,11,34,7.60
2017,12,07,11,35,7.60
2017,12,07,11,36,7.60
2017,12,07,11,37,7.70
2017,12,07,11,38,7.70
2017,12,07,11,39,7.70
2017,12,07,11,40,7.70
2017,12,07,11,41,7.80
2017,12,07,11,42,7.80
2017,12,07,11,43,7.80
2017,12,07,11,44,7.80
2017,12,07,11,45,7.90
2017,12,07,11,46,7.90
2017,12,07,11,47,8.00
2017,12,07,11,48,8.00
2017,12,07,11,49,8.00
2017,12,07,11,50,8.10
2017,12,07,11,51,8.10
2017,12,07,11,52,8.10
2017,12,07,11,53,8.10
2017,12,07,11,54,8.10
2017,12,07,11,55,8.10
2017,12,07,11,56,8.10
2017,12,07,11,57,8.10
2017,12,07,11,58,8.00
2017,12,07,11,59,8.00
2017,12,07,12,00,8.00
2017,12,07,12,01,8.00
2017,12,07,12,02,8.00
2017,12,07,12,03,8.00
2017,12,07,12,04,8.00
2017,12,07,12,05,8.00
2017,12,07,12,06,8.00
2017,12,07,12,07,8.10
2017,12,07,12,08,8.10
2017,12,07,12,09,8.10
2017,12,07,12,10,8.10
2017,12,07,12,11,8.10
2017,12,07,12,12,8.10
2017,12,07,12,13,8.10
2017,12,07,12,14,8.10
2017,12,07,12,15,8.10
2017,12,07,12,16,8.10
2017,12,07,12,17,8.10
2017,12,07,12,18,8.20
2017,12,07,12,19,8.20
2017,12,07,12,20,8.20
2017,12,07,12,21,8.30
2017,12,07,12,22,8.30
2017,12,07,12,23,8.30
2017,12,07,12,24,8.30
2017,12,07,12,25,8.40
2017,12,07,12,26,8.40
2017,12,07,12,27,8.50
2017,12,07,12,28,8.50
2017,12,07,12,29,8.60
2017,12,07,12,30,8.60
2017,12,07,12,31,8.60
2017,12,07,12,32,8.60
2017,12,07,12,33,8.60
2017,12,07,12,34,8.60
2017,12,07,12,35,8.60
2017,12,07,12,36,8.60
2017,12,07,12,37,8.60
2017,12,07,12,38,8.60
2017,12,07,12,39,8.60
2017,12,07,12,40,8.60
2017,12,07,12,41,8.60
2017,12,07,12,42,8.60
2017,12,07,12,43,8.60
2017,12,07,12,44,8.60
2017,12,07,12,45,8.60
2017,12,07,12,46,8.70
2017,12,07,12,47,8.70
2017,12,07,12,48,8.70
2017,12,07,12,49,8.80
2017,12,07,12,50,8.80
2017,12,07,12,51,8.80
2017,12,07,12,52,8.90
2017,12,07,12,53,8.90
2017,12,07,12,54,8.90
2017,12,07,12,55,9.00
2017,12,07,12,56,9.00
2017,12,07,12,57,9.00
2017,12,07,12,58,9.00
2017,12,07,12,59,9.10
2017,12,07,13,00,9.10
2017,12,07,13,01,9.10
2017,12,07,13,02,9.10
2017,12,07,13,03,9.00
2017,12,07,13,04,9.00
2017,12,07,13,05,9.00
2017,12,07,13,06,9.00
2017,12,07,13,07,9.00
2017,12,07,13,08,9.00
2017,12,07,13,09,9.00
2017,12,07,13,10,9.00
2017,12,07,13,11,8.90
2017,12,07,13,12,8.90
2017,12,07,13,13,8.90
2017,12,07,13,14,8.90
2017,12,07,13,15,9.00
2017,12,07,13,16,9.00
2017,12,07,13,17,8.90
2017,12,07,13,18,8.90
2017,12,07,13,19,8.90
2017,12,07,13,20,8.90
2017,12,07,13,21,8.90
2017,12,07,13,22,8.90
2017,12,07,13,23,8.90
2017,12,07,13,24,8.90
2017,12,07,13,25,8.80
2017,12,07,13,26,8.80
2017,12,07,13,27,8.90
2017,12,07,13,28,8.90
2017,12,07,13,29,8.90
2017,12,07,13,30,8.90
2017,12,07,13,31,8.90
2017,12,07,13,32,8.90
2017,12,07,13,33,8.90
2017,12,07,13,34,8.90
2017,12,07,13,35,8.90
2017,12,07,13,36,8.90
2017,12,07,13,37,8.90
2017,12,07,13,38,8.90
2017,12,07,13,39,8.90
2017,12,07,13,40,8.80
2017,12,07,13,41,8.80
2017,12,07,13,42,8.80
2017,12,07,13,43,8.80
2017,12,07,13,44,8.80
2017,12,07,13,45,8.80
2017,12,07,13,46,8.80
2017,12,07,13,47,8.80
2017,12,07,13,48,8.80
2017,12,07,13,49,8.80
2017,12,07,13,50,8.90
2017,12,07,13,51,8.90
2017,12,07,13,52,8.90
2017,12,07,13,53,8.90
2017,12,07,13,54,8.90
2017,12,07,13,55,8.90
2017,12,07,13,56,8.90
2017,12,07,13,57,8.90
2017,12,07,13,58,8.90
2017,12,07,13,59,9.00
2017,12,07,14,00,9.00
2017,12,07,14,01,9.00
2017,12,07,14,02,9.00
2017,12,07,14,03,9.00
2017,12,07,14,04,9.00
2017,12,07,14,05,9.00
2017,12,07,14,06,9.00
2017,12,07,14,07,9.00
2017,12,07,14,08,9.10
2017,12,07,14,09,9.10
2017,12,07,14,10,9.10
2017,12,07,14,11,9.10
2017,12,07,14,12,9.10
2017,12,07,14,13,9.10
2017,12,07,14,14,9.20
2017,12,07,14,15,9.20
2017,12,07,14,16,9.20
2017,12,07,14,17,9.20
2017,12,07,14,18,9.10
2017,12,07,14,19,9.10
2017,12,07,14,20,9.10
2017,12,07,14,21,9.10
2017,12,07,14,22,9.10
2017,12,07,14,23,9.10
2017,12,07,14,24,9.10
2017,12,07,14,25,9.10
2017,12,07,14,26,9.10
2017,12,07,14,27,9.10
2017,12,07,14,28,9.00
2017,12,07,14,29,9.00
2017,12,07,14,30,9.00
2017,12,07,14,31,9.00
2017,12,07,14,32,8.90
2017,12,07,14,33,8.90
2017,12,07,14,34,8.90
2017,12,07,14,35,8.90
2017,12,07,14,36,8.80
2017,12,07,14,37,8.80
2017,12,07,14,38,8.80
2017,12,07,14,39,8.70
2017,12,07,14,40,8.70
2017,12,07,14,41,8.70
2017,12,07,14,42,8.70
2017,12,07,14,43,8.70
2017,12,07,14,44,8.70
2017,12,07,14,45,8.70
2017,12,07,14,46,8.70
2017,12,07,14,47,8.60
2017,12,07,14,48,8.60
2017,12,07,14,49,8.60
2017,12,07,14,50,8.60
2017,12,07,14,51,8.50
2017,12,07,14,52,8.50
2017,12,07,14,53,8.50
2017,12,07,14,54,8.50
2017,12,07,14,55,8.40
2017,12,07,14,56,8.40
2017,12,07,14,57,8.40
2017,12,07,14,58,8.40
2017,12,07,14,59,8.40
2017,12,07,15,00,8.30
2017,12,07,15,01,8.30
2017,12,07,15,02,8.30
2017,12,07,15,03,8.30
2017,12,07,15,04,8.30
2017,12,07,15,05,8.30
2017,12,07,15,06,8.30
2017,12,07,15,07,8.30
2017,12,07,15,08,8.30
2017,12,07,15,09,8.30
2017,12,07,15,10,8.30
2017,12,07,15,11,8.30
2017,12,07,15,12,8.20
2017,12,07,15,13,8.20
2017,12,07,15,14,8.20
2017,12,07,15,15,8.20
2017,12,07,15,16,8.20
2017,12,07,15,17,8.20
2017,12,07,15,18,8.20
2017,12,07,15,19,8.20
2017,12,07,15,20,8.20
2017,12,07,15,21,8.20
2017,12,07,15,22,8.20
2017,12,07,15,23,8.20
2017,12,07,15,24,8.10
2017,12,07,15,25,8.10
2017,12,07,15,26,8.10
2017,12,07,15,27,8.10
2017,12,07,15,28,8.00
2017,12,07,15,29,8.00
2017,12,07,15,30,7.90
2017,12,07,15,31,7.90
2017,12,07,15,32,7.90
2017,12,07,15,33,7.80
2017,12,07,15,34,7.80
2017,12,07,15,35,7.80
2017,12,07,15,36,7.80
2017,12,07,15,37,7.70
2017,12,07,15,38,7.70
2017,12,07,15,39,7.70
2017,12,07,15,40,7.60
2017,12,07,15,41,7.60
2017,12,07,15,42,7.60
2017,12,07,15,43,7.50
2017,12,07,15,44,7.50
2017,12,07,15,45,7.50
2017,12,07,15,46,7.50
2017,12,07,15,47,7.50
2017,12,07,15,48,7.50
2017,12,07,15,49,7.50
2017,12,07,15,50,7.50
2017,12,07,15,51,7.50
2017,12,07,15,52,7.50
2017,12,07,15,53,7.50
2017,12,07,15,54,7.50
2017,12,07,15,55,7.40
2017,12,07,15,56,7.40
2017,12,07,15,57,7.40
2017,12,07,15,58,7.30
2017,12,07,15,59,7.30
2017,12,07,16,00,7.30
2017,12,07,16,01,7.30
2017,12,07,16,02,7.30
2017,12,07,16,03,7.30
2017,12,07,16,04,7.30
2017,12,07,16,05,7.30
2017,12,07,16,06,7.30
2017,12,07,16,07,7.20
2017,12,07,16,08,7.20
2017,12,07,16,09,7.20
2017,12,07,16,10,7.10
2017,12,07,16,11,7.10
2017,12,07,16,12,7.10
2017,12,07,16,13,7.00
2017,12,07,16,14,7.00
2017,12,07,16,15,7.00
2017,12,07,16,16,6.90
2017,12,07,16,17,6.90
2017,12,07,16,18,6.90
2017,12,07,16,19,6.80
2017,12,07,16,20,6.80
2017,12,07,16,21,6.80
2017,12,07,16,22,6.80
2017,12,07,16,23,6.80
2017,12,07,16,24,6.80
2017,12,07,16,25,6.80
2017,12,07,16,26,6.80
2017,12,07,16,27,6.80
2017,12,07,16,28,6.80
2017,12,07,16,29,6.80
2017,12,07,16,30,6.70
2017,12,07,16,31,6.70
2017,12,07,16,32,6.70
2017,12,07,16,33,6.70
2017,12,07,16,34,6.70
2017,12,07,16,35,6.70
2017,12,07,16,36,6.70
2017,12,07,16,37,6.70
2017,12,07,16,38,6.70
2017,12,07,16,39,6.70
2017,12,07,16,40,6.70
2017,12,07,16,41,6.70
2017,12,07,16,42,6.70
2017,12,07,16,43,6.60
2017,12,07,16,44,6.60
2017,12,07,16,45,6.60
2017,12,07,16,46,6.40
2017,12,07,16,47,6.40
2017,12,07,16,48,6.30
2017,12,07,16,49,6.30
2017,12,07,16,50,6.20
2017,12,07,16,51,6.20
2017,12,07,16,52,6.20
2017,12,07,16,53,6.20
2017,12,07,16,54,6.10
2017,12,07,16,55,6.10
2017,12,07,16,56,6.00
2017,12,07,16,57,6.00
2017,12,07,16,58,6.00
2017,12,07,16,59,5.90
2017,12,07,17,00,5.90
2017,12,07,17,01,5.80
2017,12,07,17,02,5.80
2017,12,07,17,03,5.70
2017,12,07,17,04,5.70
2017,12,07,17,05,5.70
2017,12,07,17,06,5.60
2017,12,07,17,07,5.50
2017,12,07,17,08,5.50
2017,12,07,17,09,5.40
2017,12,07,17,10,5.40
2017,12,07,17,11,5.30
2017,12,07,17,12,5.30
2017,12,07,17,13,5.20
2017,12,07,17,14,5.20
2017,12,07,17,15,5.10
2017,12,07,17,16,5.10
2017,12,07,17,17,5.10
2017,12,07,17,18,5.10
2017,12,07,17,19,5.10
2017,12,07,17,20,5.10
2017,12,07,17,21,5.10
2017,12,07,17,22,5.10
2017,12,07,17,23,5.10
2017,12,07,17,24,5.00
2017,12,07,17,25,4.90
2017,12,07,17,26,4.90
2017,12,07,17,27,4.90
2017,12,07,17,28,4.90
2017,12,07,17,29,4.80
2017,12,07,17,30,4.80
2017,12,07,17,31,4.70
2017,12,07,17,32,4.60
2017,12,07,17,33,4.60
2017,12,07,17,34,4.60
2017,12,07,17,35,4.50
2017,12,07,17,36,4.50
2017,12,07,17,37,4.50
2017,12,07,17,38,4.40
2017,12,07,17,39,4.40
2017,12,07,17,40,4.40
2017,12,07,17,41,4.40
2017,12,07,17,42,4.30
2017,12,07,17,43,4.30
2017,12,07,17,44,4.30
2017,12,07,17,45,4.30
2017,12,07,17,46,4.20
2017,12,07,17,47,4.20
2017,12,07,17,48,4.20
2017,12,07,17,49,4.20
2017,12,07,17,50,4.20
2017,12,07,17,51,4.10
2017,12,07,17,52,4.10
2017,12,07,17,53,4.10
2017,12,07,17,54,4.00
2017,12,07,17,55,4.00
2017,12,07,17,56,4.00
2017,12,07,17,57,3.90
2017,12,07,17,58,3.90
2017,12,07,17,59,3.80
2017,12,07,18,00,3.80
2017,12,07,18,01,3.80
2017,12,07,18,02,3.80
2017,12,07,18,03,3.80
2017,12,07,18,04,3.70
2017,12,07,18,05,3.70
2017,12,07,18,06,3.70